AT160 Weather Reports


time (UTC)temp
C
wind
direction
speed
KPH
gust
KPH
rain 1hr
cm
rain 24hr
cm
rain mn
cm
humidity
%
barometer
mb
20260508044205 15 349 0.0 3.2 0.00 0.00 0.00 100 1014.9
20260508043627 15 288 0.0 0.0 0.00 0.00 0.00 100 1014.9
20260508043105 15 288 0.0 0.0 0.00 0.00 0.00 100 1014.9
20260508042548 14 288 0.0 0.0 0.00 0.00 0.00 100 1014.8
20260508042458 14 288 0.0 0.0 0.00 0.00 0.00 100 1014.8
20260508041530 14 288 0.0 0.0 0.00 0.00 0.00 100 1014.8
20260508041024 14 288 0.0 0.0 0.00 0.00 0.00 100 1014.7
20260508040518 14 288 0.0 0.0 0.00 0.00 0.00 100 1014.7
20260508040005 14 288 0.0 0.0 0.00 0.00 0.00 100 1014.7
20260508035500 14 288 0.0 0.0 0.00 0.00 0.00 100 1014.7
20260508035044 14 288 0.0 0.0 0.00 0.00 0.00 100 1014.7
20260508034420 14 288 0.0 3.2 0.00 0.00 0.00 100 1014.8
20260508033857 14 288 0.0 4.8 0.00 0.00 0.00 100 1014.8
20260508033510 14 308 1.6 4.8 0.00 0.00 0.00 100 1014.8
20260508033100 14 333 1.6 4.8 0.00 0.00 0.00 100 1014.8
20260508032519 14 349 0.0 3.2 0.00 0.00 0.00 100 1014.8
20260508031912 14 8 0.0 0.0 0.00 0.00 0.00 100 1014.8
20260508031332 14 8 0.0 0.0 0.00 0.00 0.00 100 1014.8
20260508030805 14 8 0.0 0.0 0.00 0.00 0.00 100 1014.8
20260508030311 14 311 0.0 0.0 0.00 0.00 0.00 100 1014.8
20260508025938 14 268 0.0 0.0 0.00 0.00 0.00 100 1014.8
20260508025803 14 268 0.0 0.0 0.00 0.00 0.00 100 1014.8
20260508024715 14 268 0.0 0.0 0.00 0.00 0.00 100 1014.8
20260508024204 14 268 0.0 0.0 0.00 0.00 0.00 100 1014.8
20260508023620 14 268 0.0 0.0 0.00 0.00 0.00 100 1014.8
20260508023011 14 268 0.0 0.0 0.00 0.00 0.00 100 1014.8
20260508022433 14 268 0.0 0.0 0.00 0.00 0.00 100 1014.6
20260508021917 14 268 0.0 0.0 0.00 0.00 0.00 100 1014.6
20260508021406 14 268 0.0 0.0 0.00 0.00 0.00 100 1014.7
20260508020829 14 268 0.0 0.0 0.00 0.00 0.00 100 1014.7
20260508020256 14 268 0.0 0.0 0.00 0.00 0.00 100 1014.7
20260508015759 14 268 0.0 0.0 0.00 0.00 0.00 100 1014.7
20260508015216 14 268 0.0 0.0 0.00 0.00 0.00 100 1014.7
20260508014702 14 268 0.0 0.0 0.00 0.00 0.00 100 1014.7
20260508014507 15 268 0.0 0.0 0.00 0.00 0.00 100 1014.8
20260508013652 15 268 0.0 0.0 0.00 0.00 0.00 100 1014.8
20260508013135 15 268 0.0 0.0 0.00 0.00 0.00 100 1014.8
20260508012630 15 268 0.0 0.0 0.00 0.00 0.00 100 1014.9
20260508012412 15 356 0.0 0.0 0.00 0.00 0.00 100 1014.9
20260508012323 15 353 0.0 0.0 0.00 0.00 0.00 100 1014.9
20260508012152 15 354 0.0 0.0 0.00 0.00 0.00 100 1014.9
20260508010621 15 356 0.0 0.0 0.00 0.00 0.00 100 1014.9
20260508010110 15 354 0.0 0.0 0.00 0.00 0.00 100 1014.9
20260508005604 15 354 0.0 0.0 0.00 0.00 0.00 100 1015.1
20260508005102 15 354 0.0 0.0 0.00 0.00 0.00 100 1015.1
20260508004550 15 356 0.0 0.0 0.00 0.00 0.00 100 1015.1
20260508004042 15 359 0.0 0.0 0.00 0.00 0.00 100 1015.3
20260508003547 15 356 0.0 0.0 0.00 0.00 0.00 100 1015.3
20260508003037 15 356 0.0 0.0 0.00 0.00 0.00 100 1015.3
20260508002525 15 356 0.0 0.0 0.00 0.00 0.00 100 1015.3
20260508002028 15 356 0.0 0.0 0.00 0.00 0.00 100 1015.3
20260508001458 15 354 0.0 3.2 0.00 0.00 0.00 100 1015.3
20260508000951 15 357 0.0 3.2 0.00 0.00 0.00 100 1015.4
20260508000445 15 356 0.0 0.0 0.00 0.00 0.00 100 1015.4
20260507235640 15 357 0.0 0.0 0.00 0.00 0.00 100 1015.4
20260507235140 15 353 0.0 0.0 0.00 0.00 0.00 99 1015.4
20260507234842 15 356 0.0 0.0 0.00 0.00 0.00 99 1015.5
20260507234639 15 354 0.0 0.0 0.00 0.00 0.00 99 1015.4
20260507233635 15 356 0.0 0.0 0.00 0.00 0.00 99 1015.5
20260507233141 15 356 0.0 0.0 0.00 0.00 0.00 99 1015.5
20260507232647 15 356 0.0 0.0 0.00 0.00 0.00 98 1015.7
20260507232133 15 354 0.0 0.0 0.00 0.00 0.00 98 1015.7
20260507231627 15 357 0.0 0.0 0.00 0.00 0.00 97 1015.7
20260507231335 16 325 0.0 0.0 0.00 0.00 0.00 97 1015.9
20260507231137 15 354 0.0 0.0 0.00 0.00 0.00 97 1015.8
20260507230130 16 343 0.0 0.0 0.00 0.00 0.00 97 1015.9
20260507225635 16 337 0.0 0.0 0.00 0.00 0.00 97 1015.9
20260507225612 16 325 0.0 0.0 0.00 0.00 0.00 97 1015.9
20260507224854 16 332 0.0 0.0 0.00 0.00 0.00 96 1016.0
20260507224621 16 309 0.0 0.0 0.00 0.00 0.00 97 1015.9
20260507223606 16 330 0.0 0.0 0.00 0.00 0.00 96 1016.0
20260507223103 16 268 0.0 0.0 0.00 0.00 0.00 96 1016.0
20260507222539 16 268 0.0 0.0 0.00 0.00 0.00 96 1016.1
20260507222306 16 268 0.0 0.0 0.00 0.00 0.00 96 1016.1
20260507222104 16 268 0.0 0.0 0.00 0.00 0.00 96 1016.1
20260507221010 16 267 0.0 0.0 0.00 0.00 0.00 95 1016.2
20260507220454 16 268 0.0 0.0 0.00 0.00 0.00 95 1016.2
20260507215954 16 267 0.0 0.0 0.00 0.00 0.00 95 1016.2
20260507215448 16 267 0.0 0.0 0.00 0.00 0.00 95 1015.9
20260507214953 16 267 0.0 0.0 0.00 0.00 0.00 95 1015.9
20260507214413 16 267 0.0 0.0 0.00 0.00 0.00 95 1015.9
20260507213912 16 267 0.0 0.0 0.00 0.00 0.00 95 1015.9
20260507213408 16 267 0.0 0.0 0.00 0.00 0.00 95 1015.9
20260507212853 16 267 0.0 0.0 0.00 0.00 0.00 95 1015.9
20260507211841 16 267 0.0 0.0 0.00 0.00 0.00 95 1015.9
20260507211332 16 267 0.0 0.0 0.00 0.00 0.00 95 1015.9
20260507210803 16 267 0.0 0.0 0.00 0.00 0.00 95 1015.9
20260507210221 16 267 0.0 0.0 0.00 0.00 0.00 96 1015.9
20260507205717 16 267 0.0 3.2 0.00 0.00 0.00 96 1016.0
20260507205150 16 267 0.0 3.2 0.00 0.00 0.00 96 1016.0
20260507204621 16 267 0.0 3.2 0.00 0.00 0.00 96 1016.0
20260507204111 16 264 0.0 3.2 0.00 0.00 0.00 96 1016.0
20260507203612 16 274 0.0 0.0 0.00 0.00 0.00 96 1016.0
20260507203107 16 275 0.0 0.0 0.00 0.00 0.00 96 1016.0
20260507202557 16 275 0.0 3.2 0.00 0.00 0.00 96 1015.9
20260507202152 16 256 0.0 3.2 0.00 0.00 0.00 96 1015.9
20260507202041 16 275 0.0 3.2 0.00 0.00 0.00 96 1015.9
20260507201542 16 280 0.0 3.2 0.00 0.00 0.00 96 1015.9
20260507200518 16 254 0.0 1.6 0.00 0.00 0.00 96 1015.9
20260507200019 16 257 0.0 1.6 0.00 0.00 0.00 96 1015.9
20260507195458 16 261 0.0 3.2 0.00 0.00 0.00 96 1015.9
20260507194951 16 261 0.0 3.2 0.00 0.00 0.00 96 1015.9
20260507194443 16 261 0.0 1.6 0.00 0.00 0.00 96 1015.9
20260507193939 16 261 0.0 3.2 0.00 0.00 0.00 96 1015.9
20260507193246 16 257 0.0 1.6 0.00 0.00 0.00 96 1015.7
20260507193011 16 278 0.0 3.2 0.00 0.00 0.00 96 1015.9
20260507192821 16 278 0.0 0.0 0.00 0.00 0.00 96 1015.8
20260507192735 16 257 0.0 0.0 0.00 0.00 0.00 96 1015.8
20260507191337 16 257 0.0 1.6 0.00 0.00 0.00 96 1015.7
20260507190330 16 257 0.0 0.0 0.00 0.00 0.00 96 1015.7
20260507185822 16 257 0.0 0.0 0.00 0.00 0.00 96 1015.6
20260507184812 17 257 0.0 3.2 0.00 0.00 0.00 95 1015.6
20260507184313 17 257 0.0 3.2 0.00 0.00 0.00 95 1015.5
20260507183801 17 244 0.0 3.2 0.00 0.00 0.00 94 1015.5
20260507183302 17 246 0.0 4.8 0.00 0.00 0.00 94 1015.5
20260507182737 17 240 0.0 4.8 0.00 0.00 0.00 93 1015.4
20260507182211 17 243 0.0 0.0 0.00 0.00 0.00 93 1015.4
20260507181704 17 243 0.0 1.6 0.00 0.00 0.00 92 1015.4
20260507181155 17 243 0.0 4.8 0.00 0.00 0.00 92 1015.4
20260507180703 17 243 0.0 4.8 0.00 0.00 0.00 91 1015.4
20260507180139 18 244 0.0 1.6 0.00 0.00 0.00 90 1015.4
20260507175635 18 243 0.0 0.0 0.00 0.00 0.00 90 1015.2
20260507175114 18 247 0.0 0.0 0.00 0.00 0.00 89 1015.2
20260507174610 18 243 0.0 0.0 0.00 0.00 0.00 89 1015.2
20260507174057 18 243 0.0 4.8 0.00 0.00 0.00 88 1015.3
20260507173533 18 243 0.0 4.8 0.00 0.00 0.00 87 1015.3
20260507173012 18 20 0.0 0.0 0.00 0.00 0.00 87 1015.3
20260507172423 18 20 0.0 0.0 0.00 0.00 0.00 86 1015.2
20260507171924 18 20 0.0 0.0 0.00 0.00 0.00 86 1015.2
20260507171416 18 20 0.0 0.0 0.00 0.00 0.00 86 1015.2
20260507170402 19 20 0.0 0.0 0.00 0.00 0.00 85 1015.1
20260507165845 19 20 0.0 0.0 0.00 0.00 0.00 85 1015.3
20260507165348 19 20 0.0 0.0 0.00 0.00 0.00 84 1015.3
20260507164834 19 20 0.0 3.2 0.00 0.00 0.00 84 1015.3
20260507164306 19 20 0.0 3.2 0.00 0.00 0.00 83 1015.1
20260507164256 19 20 0.0 0.0 0.00 0.00 0.00 82 1015.1
20260507163248 19 20 0.0 3.2 0.00 0.00 0.00 81 1015.1
20260507162739 19 20 0.0 4.8 0.00 0.00 0.00 81 1015.4
20260507162233 19 20 0.0 4.8 0.00 0.00 0.00 81 1015.4
20260507162016 19 291 0.0 0.0 0.00 0.00 0.00 81 1015.6
20260507161752 19 311 0.0 0.0 0.00 0.00 0.00 81 1015.4
20260507160723 19 291 0.0 1.6 0.00 0.00 0.00 81 1015.6
20260507160203 19 291 0.0 1.6 0.00 0.00 0.00 81 1015.6
20260507155624 20 0 0.0 0.0 0.00 0.00 0.00 81 1015.5
20260507155100 20 0 0.0 0.0 0.00 0.00 0.00 81 1015.5
20260507154547 20 0 0.0 0.0 0.00 0.00 0.00 80 1015.5
20260507154035 20 0 0.0 3.2 0.00 0.00 0.00 80 1015.9
20260507153527 20 0 1.6 4.8 0.00 0.00 0.00 80 1015.9
20260507153001 20 359 0.0 4.8 0.00 0.00 0.00 80 1015.9
20260507152505 20 328 0.0 3.2 0.00 0.00 0.00 79 1015.9
20260507151953 20 296 0.0 3.2 0.00 0.00 0.00 78 1015.9
20260507151449 20 296 0.0 3.2 0.00 0.00 0.00 78 1015.9
20260507150938 20 48 0.0 0.0 0.00 0.00 0.00 77 1016.0
20260507150442 20 41 0.0 0.0 0.00 0.00 0.00 77 1016.0
20260507145933 20 48 0.0 0.0 0.00 0.00 0.00 76 1016.0
20260507145430 20 51 0.0 0.0 0.00 0.00 0.00 77 1016.1
20260507145117 20 44 0.0 1.6 0.00 0.00 0.00 76 1016.1
20260507144931 20 23 0.0 0.0 0.00 0.00 0.00 76 1016.1
20260507143936 20 58 0.0 4.8 0.00 0.00 0.00 76 1016.0
20260507143433 20 55 0.0 4.8 0.00 0.00 0.00 76 1016.0
20260507142935 20 72 0.0 1.6 0.00 0.00 0.00 76 1016.0
20260507142433 20 69 0.0 1.6 0.00 0.00 0.00 76 1016.1
20260507141922 20 71 0.0 0.0 0.00 0.00 0.00 76 1016.1
20260507141421 20 34 0.0 0.0 0.00 0.00 0.00 75 1016.1
20260507140920 20 34 0.0 3.2 0.00 0.00 0.00 75 1016.0
20260507140425 20 34 0.0 3.2 0.00 0.00 0.00 74 1016.0
20260507135922 20 37 0.0 3.2 0.00 0.00 0.00 74 1016.0
20260507135418 20 37 0.0 1.6 0.00 0.00 0.00 74 1016.0
20260507134914 20 37 0.0 8.0 0.00 0.00 0.00 74 1016.0
20260507134417 20 35 1.6 8.0 0.00 0.00 0.00 73 1016.0
20260507133857 20 35 0.0 4.8 0.00 0.00 0.00 74 1016.0
20260507133350 20 64 1.6 4.8 0.00 0.00 0.00 74 1016.0
20260507132958 20 34 1.6 4.8 0.00 0.00 0.00 74 1016.0
20260507132831 20 30 3.2 8.0 0.00 0.00 0.00 73 1016.0
20260507132316 20 47 1.6 8.0 0.00 0.00 0.00 73 1016.0
20260507131311 19 38 0.0 8.0 0.00 0.00 0.00 74 1016.0
20260507130813 19 40 0.0 8.0 0.00 0.00 0.00 74 1016.0
20260507130311 20 40 0.0 4.8 0.00 0.00 0.00 74 1016.0
20260507125810 20 11 0.0 1.6 0.00 0.00 0.00 75 1016.5
20260507125309 19 11 0.0 1.6 0.00 0.00 0.00 75 1016.5
20260507124755 19 11 0.0 4.8 0.00 0.00 0.00 75 1016.5
20260507124619 19 11 1.6 8.0 0.00 0.00 0.00 75 1016.7
20260507123738 19 0 1.6 8.0 0.00 0.00 0.00 76 1016.7
20260507123231 18 347 1.6 8.0 0.00 0.00 0.00 76 1016.7
20260507122853 18 312 3.2 9.7 0.00 0.00 0.00 75 1016.2
20260507122716 18 329 1.6 8.0 0.00 0.00 0.00 76 1016.2
20260507121704 18 346 4.8 9.7 0.00 0.00 0.00 76 1016.2
20260507121204 18 359 4.8 11.3 0.00 0.00 0.00 76 1016.8
20260507120655 18 25 3.2 11.3 0.00 0.00 0.00 75 1016.8
20260507120155 18 25 3.2 9.7 0.00 0.00 0.00 76 1016.8
20260507115656 18 0 3.2 11.3 0.00 0.00 0.00 77 1017.4
20260507115149 18 304 3.2 11.3 0.00 0.00 0.00 77 1017.4
20260507114822 18 17 4.8 11.3 0.00 0.00 0.00 80 1017.4
20260507114647 18 311 3.2 11.3 0.00 0.00 0.00 80 1017.4
20260507113653 18 6 4.8 11.3 0.00 0.00 0.00 81 1017.4
20260507113146 18 357 3.2 11.3 0.00 0.00 0.00 82 1017.4
20260507112643 18 350 1.6 11.3 0.00 0.00 0.00 84 1017.3
20260507112149 18 337 1.6 8.0 0.00 0.00 0.00 83 1017.3
20260507111649 18 356 1.6 8.0 0.00 0.00 0.00 82 1017.3
20260507111120 18 346 1.6 8.0 0.00 0.00 0.00 82 1017.4
20260507110616 18 350 1.6 4.8 0.00 0.00 0.00 80 1017.4
20260507110605 18 339 1.6 4.8 0.00 0.00 0.00 80 1017.4
20260507105554 18 343 1.6 8.0 0.00 0.00 0.00 79 1017.4
20260507105046 18 332 1.6 8.0 0.00 0.00 0.00 77 1017.4
20260507104542 18 344 1.6 8.0 0.00 0.00 0.00 77 1017.4
20260507104048 18 325 1.6 8.0 0.00 0.00 0.00 75 1017.4
20260507103536 18 311 3.2 9.7 0.00 0.00 0.00 75 1017.4
20260507103026 18 313 3.2 9.7 0.00 0.00 0.00 73 1017.4
20260507102518 18 342 1.6 8.0 0.00 0.00 0.00 73 1017.2
20260507102007 19 330 1.6 9.7 0.00 0.00 0.00 71 1017.2
20260507101857 19 340 1.6 9.7 0.00 0.00 0.00 71 1017.2
20260507100958 19 7 0.0 8.0 0.00 0.00 0.00 72 1017.2
20260507100637 19 0 1.6 8.0 0.00 0.00 0.00 71 1017.1
20260507100523 19 21 0.0 4.8 0.00 0.00 0.00 72 1017.2
20260507100219 19 354 4.8 9.7 0.00 0.00 0.00 69 1017.0
20260507100031 19 3 0.0 4.8 0.00 0.00 0.00 72 1017.2
20260507095821 19 10 3.2 8.0 0.00 0.00 0.00 70 1017.1
20260507093904 19 342 4.8 11.3 0.00 0.00 0.00 69 1017.0
20260507093402 19 1 4.8 11.3 0.00 0.00 0.00 69 1017.0
20260507092900 19 325 3.2 11.3 0.00 0.00 0.00 69 1016.9
20260507092528 19 0 3.2 11.3 0.00 0.00 0.00 69 1016.9
20260507092402 19 330 3.2 9.7 0.00 0.00 0.00 69 1016.9
20260507091812 19 357 3.2 11.3 0.00 0.00 0.00 69 1016.5
20260507090856 19 0 3.2 9.7 0.00 0.00 0.00 70 1016.5
20260507090348 19 323 3.2 9.7 0.00 0.00 0.00 70 1016.5
20260507085816 19 10 3.2 11.3 0.00 0.00 0.00 70 1016.3
20260507085335 19 8 3.2 11.3 0.00 0.00 0.00 70 1016.3
20260507084845 19 0 3.2 9.7 0.00 0.00 0.00 71 1016.3
20260507084312 19 17 4.8 9.7 0.00 0.00 0.00 70 1016.1
20260507083811 19 10 3.2 9.7 0.00 0.00 0.00 70 1016.1
20260507083318 19 27 4.8 11.3 0.00 0.00 0.00 70 1016.1
20260507082844 19 1 4.8 11.3 0.00 0.00 0.00 69 1016.0
20260507082315 20 0 3.2 12.9 0.00 0.00 0.00 69 1016.0
20260507081810 20 0 3.2 12.9 0.00 0.00 0.00 68 1016.0
20260507081313 20 1 1.6 9.7 0.00 0.00 0.00 67 1016.0
20260507080811 20 13 3.2 9.7 0.00 0.00 0.00 66 1016.0
20260507080308 20 0 3.2 9.7 0.00 0.00 0.00 66 1016.0
20260507075811 20 325 1.6 8.0 0.00 0.00 0.00 67 1015.9
20260507075308 20 292 1.6 8.0 0.00 0.00 0.00 67 1015.9
20260507074928 20 1 3.2 9.7 0.00 0.00 0.00 68 1015.8
20260507074528 19 359 4.8 11.3 0.00 0.00 0.00 69 1015.8
20260507074001 19 264 3.2 11.3 0.00 0.00 0.00 70 1015.8
20260507073430 19 289 1.6 9.7 0.00 0.00 0.00 71 1015.8
20260507072843 19 282 3.2 11.3 0.00 0.00 0.00 74 1015.9
20260507072340 18 343 3.2 11.3 0.00 0.00 0.00 74 1015.9
20260507071803 18 284 4.8 12.9 0.00 0.00 0.00 75 1015.9
20260507071257 18 313 4.8 14.5 0.00 0.00 0.00 76 1015.8
20260507070752 18 315 4.8 14.5 0.00 0.00 0.00 78 1015.8
20260507070254 18 350 3.2 9.7 0.00 0.00 0.00 79 1015.8
20260507065745 18 339 1.6 9.7 0.00 0.00 0.00 81 1015.7
20260507065252 18 0 3.2 9.7 0.00 0.00 0.00 82 1015.7
20260507065125 17 0 3.2 11.3 0.00 0.00 0.00 82 1015.9
20260507064939 17 357 1.6 9.7 0.00 0.00 0.00 82 1015.9
20260507064928 17 25 0.0 9.7 0.00 0.00 0.00 83 1015.9
20260507064742 17 339 4.8 11.3 0.00 0.00 0.00 82 1015.7
20260507062742 17 16 1.6 4.8 0.00 0.00 0.00 83 1015.9
20260507062234 17 7 1.6 6.4 0.00 0.00 0.00 83 1015.9
20260507061726 17 6 1.6 9.7 0.00 0.00 0.00 83 1015.9
20260507061239 17 28 3.2 9.7 0.00 0.00 0.00 83 1015.8
20260507061111 16 0 4.8 11.3 0.00 0.00 0.00 86 1015.6
20260507060742 17 18 3.2 9.7 0.00 0.00 0.00 83 1015.8
20260507060306 17 0 3.2 9.7 0.00 0.00 0.00 83 1015.8
20260507055816 17 34 3.2 9.7 0.00 0.00 0.00 83 1015.7
20260507055239 17 30 3.2 9.7 0.00 0.00 0.00 85 1015.7
20260507054807 17 37 4.8 9.7 0.00 0.00 0.00 85 1015.7
20260507053921 16 21 4.8 11.3 0.00 0.00 0.00 86 1015.6
20260507053302 16 16 4.8 9.7 0.00 0.00 0.00 86 1015.6
20260507052907 16 21 3.2 8.0 0.00 0.00 0.00 86 1015.4
20260507052733 16 18 3.2 8.0 0.00 0.00 0.00 86 1015.4
20260507051723 16 10 1.6 8.0 0.00 0.00 0.00 87 1015.4
20260507051219 16 23 1.6 6.4 0.00 0.00 0.00 87 1015.4
20260507050711 16 13 0.0 1.6 0.00 0.00 0.00 88 1015.4
20260507050200 15 13 0.0 0.0 0.00 0.00 0.00 89 1015.3
20260507045703 15 14 0.0 0.0 0.00 0.00 0.00 89 1015.2
20260507045153 15 32 0.0 0.0 0.00 0.00 0.00 88 1015.2
20260507044659 15 28 0.0 0.0 0.00 0.00 0.00 88 1015.2